This demonstration page uses our WeatherBlox Daily Observations layout. Learn more.

Left ArrowRight Arrow

31.31129, -92.44514

Hourly Observations for October 10, 2015

Temp ( °F °C ) Dew Point ( °F °C ) Humidity (%) Winds ( mph kmh ) Pressure ( in mb ) Visibility ( mi km ) Precip ( " mm )
12:53 am 00:53 Clear 72 22.2 63 17.2 73 73 NNE 13 20 30.09 1019 10 16 0.00 0.00
1:53 am 01:53 Clear 70 21.1 63 17.2 79 79 NNE 7 11 30.09 1019 10 16 0.00 0.00
2:53 am 02:53 Clear 69 20.6 63 17.2 81 81 N 5 7 30.10 1019 10 16 0.00 0.00
3:53 am 03:53 Clear 68 20 62 16.7 81 81 N 6 9 30.09 1019 10 16 0.00 0.00
4:53 am 04:53 Clear 67 19.4 62 16.7 84 84 N 7 11 30.09 1019 10 16 0.00 0.00
5:53 am 05:53 Clear 65 18.3 61 16.1 87 87 N 9 15 30.09 1019 10 16 0.00 0.00
6:53 am 06:53 Clear 64 17.8 60 15.6 87 87 N 8 13 30.11 1020 10 16 0.00 0.00
7:53 am 07:53 Sunny 64 17.8 60 15.6 87 87 N 9 15 30.14 1021 10 16 0.00 0.00
8:53 am 08:53 Sunny 67 19.4 58 14.4 73 73 NNE 8 13 30.16 1021 10 16 0.00 0.00
9:53 am 09:53 Sunny 68 20 58 14.4 70 70 NNE 7 11 30.17 1022 10 16 0.00 0.00
10:53 am 10:53 Sunny 72 22.2 57 13.9 59 59 N 8 13 30.17 1022 10 16 0.00 0.00
11:53 am 11:53 Sunny 75 23.9 57 13.9 54 54 NNW 10 17 30.16 1021 10 16 0.00 0.00
12:53 pm 12:53 Mostly Sunny 78 25.6 57 13.9 48 48 NW 9 15 30.12 1020 10 16 0.00 0.00
1:53 pm 13:53 Sunny 80 26.7 54 12.2 41 41 N 10 17 30.09 1019 10 16 0.00 0.00
2:53 pm 14:53 Sunny 82 27.8 51 10.6 34 34 NNW 13 20 30.05 1018 10 16 0.00 0.00
3:53 pm 15:53 Sunny 82 27.8 50 10 33 33 VRB 7 11 30.03 1017 10 16 0.00 0.00
4:53 pm 16:53 Sunny 82 27.8 50 10 33 33 N 10 17 30.03 1017 10 16 0.00 0.00
5:53 pm 17:53 Sunny 78 25.6 49 9.4 36 36 N 7 11 30.02 1017 10 16 0.00 0.00
6:53 pm 18:53 Clear 73 22.8 52 11.1 48 48 NNE 7 11 30.03 1017 10 16 0.00 0.00
7:53 pm 19:53 Clear 68 20 54 12.2 61 61 NE 3 6 30.05 1018 10 16 0.00 0.00
8:53 pm 20:53 Clear 63 17.2 52 11.1 68 68 Calm 30.06 1018 10 16 0.00 0.00
9:53 pm 21:53 Clear 62 16.7 54 12.2 75 75 Calm 30.08 1019 10 16 0.00 0.00
10:53 pm 22:53 Clear 60 15.6 53 11.7 78 78 Calm 30.09 1019 10 16 0.00 0.00
11:53 pm 23:53 Clear 56 13.3 54 12.2 93 93 NW 3 6 30.08 1019 8 13 0.00 0.00

Powered by AerisWeather